Wind_Speed
32 32 32 31 30 29 28 27 26 28 31 32 32 30 29 30 31 32 34 34 36 38 40 41 42 43 43 43 42 41 42 42 42 42 43 43 42 42 41 42 44 45 44 43 41 41 41 42 42 41 41 42 42 42 44 46 47 50 49 47 51 57 56 55 54 53 56 55 47 43 46 48 51 53 54 55 55 54 53 50 47 44 42 40 39
34 35 35 35 34 33 33 32 31 31 32 34 35 35 34 34 35 36 36 36 37 39 40 42 44 45 46 46 45 44 44 44 44 45 46 46 44 43 42 43 43 44 45 44 42 41 41 41 41 39 40 42 41 42 44 43 43 49 52 52 55 56 54 55 55 56 57 51 43 44 47 49 51 53 54 55 55 55 53 49 45 42 41 39 37
34 36 37 37 37 36 36 36 36 36 36 35 36 36 35 35 36 38 38 39 39 40 41 43 45 47 48 48 48 47 46 46 47 47 47 47 47 45 43 43 43 43 45 45 43 42 41 41 40 38 39 41 41 43 46 45 45 51 55 56 54 53 54 55 54 55 54 48 46 48 49 50 52 54 55 55 54 52 49 45 42 40 38 36 34
34 35 36 36 37 38 38 38 39 40 40 39 39 38 37 37 38 39 40 41 42 42 42 44 46 48 49 49 49 49 48 49 50 50 49 49 48 46 44 43 44 43 44 45 44 43 42 41 39 38 38 40 41 43 46 48 50 53 54 52 50 52 55 54 53 55 53 48 48 50 51 52 53 54 55 54 52 49 44 40 38 37 35 34 32
32 33 34 35 36 37 38 39 40 41 41 42 43 42 41 41 41 42 43 43 44 44 44 45 47 49 49 50 51 50 50 52 52 52 51 51 50 48 45 44 44 43 43 44 45 44 44 42 39 38 39 40 40 41 44 46 47 49 50 49 51 55 55 53 54 55 51 49 51 51 51 52 52 52 53 51 48 43 38 36 36 35 34 33 32
31 31 32 33 34 34 35 37 40 42 43 44 44 45 45 45 45 46 46 47 48 48 49 49 50 51 52 52 53 53 53 55 55 55 54 53 51 49 47 46 45 44 44 45 45 45 45 43 41 40 40 40 40 40 40 41 43 45 48 51 54 55 54 54 54 52 49 51 53 53 52 50 49 50 50 49 44 38 35 35 35 35 34 32 32
29 30 31 31 32 32 32 33 36 39 43 45 45 46 46 47 48 49 50 51 53 53 54 54 54 55 55 56 57 57 58 59 58 57 56 55 54 51 48 47 47 45 45 45 46 46 45 44 43 42 41 40 40 39 39 40 43 47 51 53 53 54 54 54 51 48 48 50 53 53 52 49 48 48 48 45 40 35 34 35 36 34 33 32 33
29 29 31 32 33 33 33 33 34 35 38 42 44 46 47 48 49 51 52 54 55 56 57 57 58 58 59 60 60 61 62 62 61 60 58 57 56 53 49 49 48 46 45 46 46 47 46 45 44 43 42 40 40 39 39 42 46 49 52 53 54 53 53 51 49 49 48 50 52 53 50 47 45 47 47 43 37 34 34 35 35 33 33 33 35
32 32 32 33 35 35 35 35 35 36 37 38 40 43 45 48 50 51 53 55 56 57 58 59 60 61 61 61 62 62 63 63 62 60 59 58 57 54 52 50 49 47 46 46 47 47 47 47 46 44 43 41 40 40 41 43 46 48 50 51 51 51 50 50 51 50 48 49 52 52 48 44 44 45 44 38 33 33 34 33 33 33 33 34 35
36 36 36 36 37 37 38 38 38 38 39 39 39 41 43 45 47 49 50 51 52 53 54 56 57 59 59 59 60 61 61 61 60 59 59 58 56 54 53 52 49 47 46 46 47 48 48 47 46 45 44 42 42 41 42 43 44 45 45 45 46 48 50 50 49 47 46 47 47 45 43 41 41 40 36 33 33 33 33 33 33 33 33 33 34
39 40 40 40 40 40 41 42 42 43 43 42 42 43 44 45 46 47 48 48 49 50 51 52 52 54 56 57 58 59 60 60 59 59 59 58 56 55 54 52 49 46 46 46 47 48 48 47 46 45 44 43 42 42 43 43 42 42 41 42 44 47 48 46 44 44 46 46 43 41 39 38 37 34 33 34 34 34 34 33 32 31 30 31 32
40 41 41 42 42 43 43 44 45 46 46 46 46 46 47 48 48 49 50 50 50 50 50 50 50 51 52 54 55 56 58 58 58 58 57 56 56 56 54 51 48 46 46 46 47 48 48 47 47 46 44 43 42 42 43 42 40 40 41 43 43 44 45 44 45 46 46 44 41 39 37 36 35 34 35 35 34 33 32 30 28 28 29 30 31
39 40 40 41 42 43 44 45 46 46 47 49 50 51 51 52 52 52 53 53 53 52 50 50 50 50 51 52 53 54 55 56 56 56 56 56 56 55 53 50 48 46 45 45 46 48 48 47 47 46 44 43 42 42 41 39 39 42 44 44 43 43 45 47 48 48 45 42 38 34 33 34 35 35 35 35 33 31 28 26 26 27 28 29 26
39 40 41 41 42 42 43 44 44 44 45 47 49 51 52 53 54 55 55 56 56 55 53 51 50 50 51 52 52 53 53 54 55 56 56 56 55 53 51 49 48 46 45 45 46 47 48 48 47 46 45 44 42 40 39 39 42 46 46 42 41 43 46 48 49 47 44 39 34 31 32 34 34 34 33 31 28 26 25 25 26 27 26 23 20
39 39 40 40 40 40 40 41 42 42 42 43 45 47 49 50 52 53 54 55 55 56 55 53 51 50 51 52 53 53 53 54 55 56 55 54 53 51 49 48 47 46 45 45 46 47 47 48 47 47 47 45 41 39 38 41 45 47 44 41 41 45 47 47 46 44 40 35 33 32 33 33 33 31 28 25 24 23 23 24 26 25 21 18 17
37 36 36 37 37 37 38 39 40 40 40 41 42 44 46 47 48 50 52 52 54 55 55 54 53 52 51 52 53 53 53 54 55 55 54 52 50 49 48 47 46 45 45 45 46 46 47 47 47 47 46 43 40 39 41 43 45 44 42 42 43 45 45 44 43 40 37 34 33 34 34 32 30 26 23 23 22 22 23 25 24 21 17 16 18
36 36 36 36 36 36 37 37 38 38 38 39 41 42 44 45 46 47 49 50 52 54 55 56 56 55 54 53 52 52 52 53 54 53 52 49 47 46 46 45 45 45 46 46 46 46 46 46 47 46 43 40 39 39 40 41 42 41 41 42 43 42 42 41 40 38 35 35 35 34 32 29 25 22 21 21 21 22 24 23 20 17 16 18 21
39 40 40 40 39 39 39 39 38 38 37 38 39 41 42 44 44 45 46 47 48 50 52 54 55 56 55 54 54 53 52 52 52 51 49 46 45 45 46 45 45 46 46 46 45 45 45 46 46 44 41 39 39 39 38 38 37 38 41 43 42 41 41 40 39 37 36 35 34 31 28 24 21 20 19 20 21 23 21 19 16 16 18 20 23
43 43 43 44 44 44 44 44 43 43 41 41 40 41 42 43 44 45 45 46 47 47 49 50 51 53 54 54 54 53 52 51 50 48 46 45 46 46 46 46 46 45 45 45 46 46 45 45 43 41 39 38 37 36 37 37 36 38 42 44 44 43 42 40 39 37 36 34 31 26 23 20 19 19 19 20 21 20 18 17 17 18 21 23 25
47 47 47 47 47 47 48 48 48 48 48 47 46 45 45 44 45 45 46 46 47 47 48 49 49 50 51 52 53 52 50 49 48 47 47 47 46 46 45 45 45 44 44 45 46 46 45 44 42 39 36 35 35 36 39 40 40 41 43 45 44 43 42 40 39 37 34 30 26 22 20 18 18 18 20 20 19 18 17 17 19 21 23 25 27
52 52 51 51 51 50 50 50 51 51 51 51 50 49 49 48 47 47 47 47 47 48 49 50 50 50 51 52 52 51 49 48 47 48 48 48 47 46 45 44 44 44 45 46 46 46 44 42 40 37 35 35 38 40 42 43 42 40 41 41 40 39 39 38 37 34 30 25 22 19 17 17 17 19 20 19 18 17 18 19 21 23 25 27 28
55 55 55 55 55 54 54 53 52 52 52 52 52 51 50 50 49 49 49 48 48 48 48 50 51 51 51 52 52 51 50 50 50 51 51 50 47 46 45 45 45 45 46 47 47 46 44 40 38 36 36 37 40 42 44 44 41 37 37 37 36 37 37 35 33 29 25 21 19 17 16 17 18 19 19 19 18 18 19 21 23 25 26 28 31
54 55 55 56 57 56 56 55 53 52 51 51 51 51 50 50 50 49 49 49 49 49 48 48 49 51 52 53 53 53 52 53 53 55 54 51 49 48 47 46 46 47 47 48 48 47 43 40 38 37 37 38 40 41 41 40 37 35 35 36 35 35 34 32 27 24 21 18 17 16 16 17 19 19 19 18 18 19 21 23 24 26 28 30 33
54 54 54 55 55 56 56 55 54 53 52 51 50 50 49 49 50 49 48 48 49 49 49 48 48 48 50 52 53 53 54 55 56 56 54 52 51 50 49 48 48 48 48 47 46 44 42 39 38 37 36 37 38 38 36 35 35 35 35 34 33 32 30 26 23 20 18 16 16 16 16 18 19 19 19 18 19 21 22 24 26 28 30 32 34
57 56 55 55 55 55 55 55 54 53 52 52 51 50 50 50 50 50 49 49 49 49 49 48 47 47 48 50 51 52 53 55 56 56 55 54 54 54 54 53 51 49 47 46 44 42 39 37 36 35 34 34 34 34 33 32 33 34 33 31 30 28 26 22 19 17 16 15 16 16 17 18 19 19 19 19 20 22 24 26 28 30 32 34 35
57 57 56 55 53 53 53 52 52 51 51 51 50 50 50 51 51 51 51 51 50 50 50 49 48 47 47 48 48 50 51 53 54 55 55 55 56 57 56 53 49 45 43 42 40 38 34 32 31 30 30 29 29 30 30 31 32 31 30 28 27 24 22 19 17 16 15 16 16 16 17 18 19 19 19 20 22 24 26 28 30 32 34 35 36
56 56 55 54 52 52 51 51 50 49 49 48 48 48 49 50 50 51 52 52 51 51 51 51 49 48 47 46 46 48 49 51 52 54 54 54 53 52 50 47 42 39 36 34 32 30 28 27 26 26 25 26 27 28 29 29 28 27 26 25 23 21 18 17 16 16 16 16 16 17 17 19 20 20 21 22 24 26 28 30 32 34 35 36 37
57 56 55 54 53 52 52 52 51 50 49 49 49 48 49 49 50 50 51 51 51 50 49 48 47 46 46 45 45 46 47 49 51 51 51 50 48 45 43 40 36 33 30 28 26 25 24 23 23 23 23 23 24 25 25 24 23 23 23 22 20 18 17 16 16 16 16 17 17 17 18 20 21 21 22 23 26 27 29 31 33 35 36 37 38
57 56 55 55 54 53 53 53 53 52 52 51 51 50 50 50 50 49 49 49 48 47 46 45 45 44 44 44 45 46 47 47 47 47 47 45 42 39 36 34 31 29 27 25 24 23 23 22 22 21 20 18 18 17 17 18 19 19 19 18 17 16 16 16 17 17 18 18 18 18 20 21 22 22 23 25 27 29 31 33 35 36 37 38 38
58 57 56 55 54 54 53 53 54 53 53 53 53 52 53 52 50 49 47 46 45 45 44 43 43 43 44 45 47 47 46 44 43 42 41 38 35 33 31 29 28 26 24 22 20 19 19 18 17 16 14 13 12 12 12 14 15 16 16 16 16 16 17 17 18 18 19 19 19 19 21 22 23 24 25 27 29 31 33 35 36 37 38 38 39
60 59 58 57 56 55 54 54 53 53 54 55 54 54 55 54 51 49 46 43 42 43 44 44 45 45 45 45 45 43 42 40 36 33 31 30 29 27 25 22 21 18 17 16 15 13 13 13 12 11 11 10 11 11 12 13 14 15 15 16 16 17 17 18 18 19 20 20 20 21 23 24 25 26 27 29 31 32 34 36 37 37 38 38 39
62 61 60 58 57 56 55 54 54 53 53 54 54 54 55 53 50 48 45 43 43 45 47 47 46 42 41 40 38 35 32 30 26 22 21 21 20 18 17 16 15 14 13 13 12 11 11 11 10 10 9 10 11 12 13 13 14 14 15 16 16 17 17 18 19 20 21 21 21 23 24 25 27 28 30 31 32 33 35 36 37 38 38 38 39
64 63 62 60 58 57 56 55 54 54 53 53 53 53 53 51 49 46 43 42 45 46 46 43 39 34 33 34 31 27 24 22 20 17 17 17 17 16 16 15 14 14 13 12 12 11 11 10 10 10 10 10 11 12 12 13 13 14 15 16 16 17 18 19 20 21 22 22 23 25 26 27 29 31 31 32 33 34 36 37 37 38 38 39 40
63 62 61 59 58 56 55 54 53 53 53 52 52 51 49 47 45 43 40 40 43 44 43 40 33 27 24 25 24 21 19 19 19 17 16 16 17 16 16 15 14 13 13 13 12 12 11 11 10 10 11 11 11 12 12 13 14 14 15 16 17 18 19 21 22 22 23 24 25 27 28 30 31 32 32 33 34 36 37 38 38 39 39 39 40
59 59 58 56 55 53 52 51 51 51 51 50 50 49 46 43 41 40 39 40 41 40 39 37 30 22 19 20 21 20 20 20 21 19 17 15 14 13 13 12 12 12 11 12 12 12 12 11 11 11 11 12 12 12 12 13 13 14 15 17 18 20 21 22 23 24 25 26 28 29 30 31 33 33 34 35 36 37 38 39 39 39 39 40 40
56 56 54 52 51 51 50 49 48 48 48 48 47 45 43 40 39 39 40 41 41 38 36 34 28 21 19 21 22 22 22 21 21 19 17 14 13 13 13 13 13 12 11 11 11 12 12 12 12 12 12 12 12 13 13 14 14 16 17 19 20 22 23 24 25 26 27 28 30 31 32 33 34 34 35 36 37 39 39 40 40 40 40 40 41
54 52 50 49 49 49 48 46 46 45 46 45 44 41 39 39 39 40 40 41 40 38 35 31 25 20 19 20 21 21 20 19 18 17 16 14 14 13 13 12 12 11 11 11 11 11 11 11 12 12 12 12 13 14 14 15 17 18 20 21 23 24 25 26 27 28 29 30 31 32 34 34 35 36 37 38 39 40 40 41 40 40 41 42 43
52 51 48 46 47 46 45 44 44 44 43 42 40 39 38 38 40 41 41 38 37 35 33 28 23 19 18 18 18 18 18 17 16 15 14 13 12 11 10 10 9 10 10 11 11 11 12 12 13 14 14 15 15 16 17 18 19 20 22 23 25 26 27 27 28 29 30 31 33 34 35 36 37 37 39 40 40 41 41 41 42 42 42 43 44
51 49 47 45 46 46 45 45 44 43 41 40 39 38 38 39 40 40 37 34 34 34 32 28 24 21 20 19 18 18 18 17 16 14 12 11 10 9 9 9 9 10 10 11 11 12 13 14 15 16 16 17 17 18 19 20 21 22 23 25 26 27 27 28 29 31 32 33 35 36 37 38 39 40 40 41 41 42 42 43 43 44 44 45 45
50 48 46 45 45 46 46 46 45 43 41 40 40 39 38 38 38 35 32 32 32 31 29 26 24 23 22 22 21 19 17 16 14 13 12 11 10 10 10 10 10 11 11 12 13 14 15 16 17 18 18 18 19 19 20 21 22 23 25 25 26 27 28 30 31 32 34 36 37 38 39 40 41 41 42 42 43 44 45 45 45 46 46 46 46
49 48 46 45 44 45 46 46 46 45 42 41 42 41 39 36 33 31 31 30 28 27 25 24 24 24 23 22 20 18 16 14 13 12 11 11 11 11 11 12 12 12 13 14 15 16 17 18 18 19 19 20 20 21 22 23 24 25 26 27 28 29 30 32 33 35 36 38 39 40 41 41 42 43 43 44 45 46 47 47 47 47 47 47 47
49 48 46 44 44 45 44 43 44 44 42 42 44 41 35 31 31 32 30 27 26 25 24 24 24 23 22 20 18 16 15 14 13 13 13 12 13 12 13 13 13 14 15 16 17 18 19 19 20 20 21 22 22 23 24 25 26 27 28 29 30 31 32 34 35 37 38 39 40 41 41 42 43 44 45 46 47 48 48 48 49 49 49 48 47
48 47 45 44 44 44 42 41 41 42 41 43 43 36 30 31 33 30 26 24 24 24 24 24 24 22 20 18 17 15 15 14 13 14 13 13 13 13 14 14 15 16 17 18 19 19 20 20 21 22 23 23 24 25 26 27 28 29 30 31 32 33 34 35 37 38 39 40 41 41 42 43 45 46 47 48 48 49 49 50 50 49 49 48 47
47 46 44 44 43 42 41 41 41 41 40 39 37 32 32 32 31 27 25 24 24 24 24 24 23 21 19 18 17 16 15 15 14 14 14 14 14 14 15 15 16 17 18 19 19 20 21 22 22 23 24 25 26 27 28 29 30 30 31 32 33 34 35 37 38 39 40 41 42 43 44 45 46 47 48 48 49 50 50 50 49 49 48 48 47
46 45 44 42 41 40 40 40 40 39 36 33 34 34 32 29 28 26 26 26 26 25 24 23 22 20 20 19 18 17 17 16 15 15 15 15 15 15 15 16 17 18 19 19 20 21 22 23 24 25 26 27 28 28 29 30 31 32 33 34 34 36 37 38 39 40 41 42 43 44 45 46 46 47 48 49 49 49 49 49 49 49 48 48 48
44 43 42 40 39 38 38 39 39 37 32 31 35 33 29 27 27 28 29 27 25 24 24 23 22 21 20 19 18 17 16 16 15 15 15 15 15 16 16 17 18 18 19 20 21 22 23 24 25 26 27 28 29 29 30 31 32 33 34 35 36 37 38 39 40 41 41 42 43 44 45 46 47 47 48 49 49 49 49 49 49 49 49 48 48
42 41 40 39 36 35 36 37 37 34 30 32 35 32 29 29 30 30 29 28 25 25 24 23 22 21 20 19 18 17 16 15 15 15 15 16 16 17 18 18 19 20 20 21 22 23 24 25 26 27 28 28 29 30 31 32 33 34 35 36 37 37 38 39 40 41 42 43 43 44 45 46 47 48 49 50 50 50 50 50 50 49 49 49 48
39 38 37 36 33 33 35 36 35 32 30 32 35 33 32 33 32 31 29 28 27 26 25 23 22 21 20 19 18 17 16 16 16 16 17 17 18 18 19 20 20 21 22 23 24 24 25 26 27 28 29 30 30 31 32 33 33 34 35 36 36 37 38 39 40 41 42 43 44 46 47 48 49 49 50 50 49 49 49 49 48 48 48 47 46
36 34 34 33 31 31 34 34 33 30 28 32 35 34 33 34 33 30 28 28 27 27 25 24 22 21 20 19 19 18 18 18 18 18 18 19 19 20 21 22 23 23 24 25 25 26 27 28 29 29 30 31 31 32 32 33 33 34 35 36 37 37 38 39 41 42 44 45 46 46 46 46 46 45 45 45 45 45 45 45 44 44 44 43 42
33 31 30 30 30 31 33 32 30 28 29 33 35 34 33 33 31 28 27 27 27 27 26 24 23 22 21 20 19 19 18 18 18 19 20 20 22 23 23 24 25 25 26 27 28 28 29 29 30 30 30 31 31 32 32 33 34 34 35 36 37 39 40 41 42 43 44 43 43 42 41 41 40 40 40 40 40 40 41 41 41 41 41 40 39
34 31 29 28 30 31 32 31 29 28 30 33 35 33 32 30 28 26 27 27 27 27 26 24 23 22 22 21 20 19 19 19 19 20 22 23 24 25 25 26 26 27 28 29 29 29 29 29 29 29 30 30 31 32 33 34 35 36 37 38 39 40 40 40 40 40 40 39 38 38 37 37 37 37 37 37 37 38 38 38 38 38 38 37 37
Wind_Direction
270 270 269 268 268 264 257 251 253 259 265 270 274 278 281 284 286 287 289 292 293 293 293 294 295 296 296 296 298 299 300 302 303 304 305 306 306 304 303 300 297 294 290 286 282 279 277 275 273 272 270 269 266 261 264 267 264 267 271 272 277 282 282 282 283 282 283 285 282 272 269 271 270 269 271 269 264 261 259 256 253 252 252 252 254
273 274 274 273 272 270 266 260 255 254 259 265 270 274 278 280 282 284 285 288 288 287 287 289 290 291 293 294 296 297 298 300 301 302 304 305 305 303 301 299 296 293 290 286 283 279 277 276 274 273 270 267 263 261 263 262 262 268 272 273 277 278 277 280 281 281 280 279 277 273 270 269 270 271 271 270 267 263 259 256 252 251 250 251 253
276 274 274 275 275 274 272 269 265 261 259 260 264 268 272 276 278 280 281 282 282 283 284 285 286 288 290 292 293 295 296 298 299 301 303 303 303 302 300 298 296 292 289 287 284 280 278 277 276 275 273 269 263 259 259 259 262 268 270 273 274 272 274 278 278 279 278 272 270 272 269 268 268 269 270 269 266 262 258 254 250 248 248 250 255
277 274 272 273 274 275 275 274 273 271 267 264 263 264 265 268 270 273 275 277 278 280 281 283 284 285 287 290 291 292 294 296 298 300 301 302 301 300 298 297 295 292 289 286 283 280 278 277 277 276 274 272 267 262 260 260 262 266 269 272 272 272 276 277 276 278 275 267 268 272 270 269 268 268 268 266 262 259 255 250 246 244 247 252 258
284 280 278 276 275 275 275 274 274 273 271 269 266 264 263 264 265 267 270 273 275 276 278 279 281 283 285 287 289 290 292 294 295 297 299 300 300 298 296 296 295 292 289 286 283 280 279 278 277 275 274 273 271 268 265 263 264 267 271 272 272 274 277 276 276 277 270 263 269 274 274 273 271 269 267 263 259 255 250 245 242 244 249 255 262
289 287 285 284 284 282 279 276 273 272 271 270 269 267 265 265 266 268 269 271 273 275 277 278 280 282 283 284 286 288 289 291 293 295 297 298 298 296 294 295 295 292 290 287 284 281 280 279 277 275 274 275 274 272 270 268 268 269 270 271 273 275 275 274 276 275 268 262 266 272 275 274 271 268 265 260 256 251 245 242 242 247 252 258 266
290 290 290 291 293 293 290 285 280 276 274 273 272 271 270 270 270 271 272 274 276 278 280 281 282 282 283 284 285 287 288 289 291 293 294 296 296 294 292 293 294 292 290 288 285 283 281 280 279 276 275 275 275 275 273 271 269 267 267 269 272 273 272 272 274 274 268 262 265 271 273 271 268 265 262 257 252 247 243 242 243 248 254 261 270
292 292 293 294 296 297 296 294 291 286 281 278 276 275 275 275 275 276 276 278 280 282 283 283 283 283 284 285 286 287 287 289 290 292 293 294 295 293 290 292 293 291 289 288 285 284 283 282 281 278 277 276 275 275 273 270 267 265 265 267 268 269 270 271 273 273 267 262 265 269 270 269 266 263 259 254 249 244 241 241 244 250 257 266 275
291 291 292 293 294 294 294 294 293 291 289 286 283 280 279 279 279 279 280 281 282 283 283 284 283 284 284 285 285 286 287 288 289 291 292 293 293 291 289 292 292 289 288 287 285 284 283 283 281 279 278 276 275 275 273 271 268 267 266 265 265 267 269 270 271 271 267 263 264 266 267 267 264 260 256 251 244 238 236 241 247 255 264 272 277
287 288 288 289 290 290 290 290 290 289 288 287 286 284 283 282 281 281 281 282 283 283 284 284 284 283 283 283 283 284 285 286 287 289 290 291 291 289 289 291 290 287 286 285 284 283 282 282 281 279 278 276 275 275 274 273 271 269 267 266 266 267 269 270 269 268 268 268 268 267 266 265 261 256 249 238 232 233 238 245 253 262 270 275 279
283 283 284 284 284 284 285 286 287 287 285 284 283 282 281 281 281 281 281 282 283 283 284 284 285 284 283 282 282 282 283 284 285 286 287 288 288 288 289 289 286 284 284 283 283 282 281 281 280 279 278 276 275 274 273 272 271 269 268 267 266 266 267 267 267 267 269 270 270 267 265 262 255 245 234 229 232 238 244 251 259 268 274 277 281
281 281 280 279 279 279 280 280 282 283 283 283 283 281 280 279 279 280 280 281 281 282 283 284 285 284 282 281 281 281 282 282 283 284 285 286 286 287 287 285 283 282 281 280 280 280 279 279 279 278 277 276 275 272 271 271 271 271 271 270 267 265 264 264 264 266 267 268 267 265 261 254 242 232 229 232 237 242 249 259 268 274 277 281 284
285 283 281 281 280 280 280 279 280 280 281 281 281 281 281 280 280 280 281 281 282 282 283 284 284 284 283 281 280 279 280 281 282 282 283 284 285 285 284 283 281 280 279 278 277 277 278 278 278 277 276 275 273 271 270 271 270 269 269 269 266 264 264 263 262 262 263 263 262 257 249 241 233 228 231 234 239 248 259 269 274 278 282 284 283
290 290 289 289 287 286 285 284 283 283 282 281 280 280 280 280 280 281 281 282 282 283 284 284 285 285 284 283 281 279 279 280 280 281 281 282 283 283 282 281 280 280 278 276 275 275 276 276 276 276 275 273 271 269 268 268 267 268 269 268 266 265 265 262 260 260 259 257 252 243 233 229 227 228 232 238 249 262 271 275 279 283 284 280 277
296 296 296 295 294 292 291 289 289 288 286 284 282 281 281 281 281 282 282 282 282 283 284 284 284 284 284 284 283 282 281 281 280 280 281 282 281 280 280 280 280 279 278 277 275 275 274 275 275 274 273 272 270 268 265 263 264 267 268 266 265 264 263 261 260 259 256 250 240 230 224 224 228 233 242 254 265 271 276 280 283 281 275 272 276
300 300 299 299 299 298 296 294 294 293 291 289 287 286 285 285 284 284 283 283 283 283 284 284 284 284 283 284 284 284 284 283 282 281 280 280 280 279 279 280 280 280 279 278 276 275 275 274 273 272 271 271 270 267 264 264 264 266 265 263 262 261 260 260 260 257 249 238 230 226 226 230 236 246 259 268 271 275 280 281 277 270 267 273 281
299 298 298 299 299 300 299 298 297 296 295 294 292 290 290 289 288 286 285 283 283 283 284 284 284 284 284 284 285 285 286 285 283 281 280 280 279 278 279 279 279 280 279 278 278 277 276 275 273 272 272 271 269 267 266 265 264 263 261 260 259 260 261 261 256 249 239 233 232 232 234 239 248 259 267 270 274 279 279 272 265 263 270 278 284
298 298 298 299 299 300 300 300 299 298 297 296 295 293 292 291 290 289 288 286 284 284 284 285 285 286 286 286 286 286 286 285 283 281 280 279 277 276 277 278 279 280 281 281 281 280 278 276 275 274 274 273 270 270 270 269 265 261 260 261 262 262 261 258 251 245 240 238 237 237 240 250 261 266 268 273 277 276 269 262 261 269 277 281 284
298 298 299 299 300 300 300 300 300 299 299 298 297 297 296 295 293 292 290 289 287 286 286 286 286 286 286 286 286 286 285 284 282 280 278 276 275 276 277 279 281 282 283 283 283 282 281 279 277 276 274 271 269 270 271 270 267 262 260 261 262 261 258 254 251 248 244 239 237 241 250 259 264 265 270 275 274 267 260 260 268 275 280 283 285
301 301 301 301 301 301 301 301 300 300 300 299 298 298 298 297 297 296 293 291 288 286 286 286 286 285 285 285 285 285 283 281 279 277 275 275 276 278 279 281 282 283 283 283 282 282 281 279 278 277 275 271 270 272 271 268 266 264 263 262 261 259 257 254 250 245 240 238 241 250 257 260 262 268 274 272 265 258 258 266 274 279 282 285 288
304 304 304 304 303 303 303 303 302 301 301 300 299 298 297 296 296 296 296 294 291 287 284 283 283 283 282 282 282 282 281 277 275 274 275 276 278 279 280 281 282 282 283 282 281 280 279 278 278 277 274 269 266 267 268 269 270 268 264 261 257 255 253 250 244 240 238 242 249 254 256 260 266 271 270 263 257 257 263 272 278 282 285 290 295
308 307 307 307 306 306 305 304 304 303 301 300 299 298 297 296 295 294 294 294 293 291 287 284 282 281 280 280 279 279 277 275 273 274 275 277 278 278 278 279 281 282 283 283 281 279 278 278 275 272 269 266 263 262 265 269 271 265 257 253 252 251 248 242 237 237 242 247 250 251 255 263 268 267 261 256 256 263 272 278 283 286 291 295 300
309 309 309 309 308 308 307 306 305 304 302 300 298 296 295 293 292 291 291 291 291 291 290 288 285 282 280 278 278 277 275 274 273 273 275 277 278 277 277 278 279 281 282 283 282 279 277 276 273 269 267 267 265 264 264 265 264 259 254 254 253 248 240 235 235 241 244 244 245 251 258 263 263 259 255 256 263 272 278 283 286 291 295 298 302
307 308 308 308 309 309 308 308 307 306 304 301 299 296 294 291 289 288 286 286 286 286 286 287 286 284 281 279 277 277 276 275 274 275 278 280 280 279 278 277 277 278 279 280 279 275 273 272 269 266 265 263 261 261 261 260 258 258 257 255 248 239 233 235 240 241 239 240 246 253 258 259 256 254 255 263 272 278 282 285 289 293 297 301 305
305 305 305 305 306 307 307 308 308 307 305 303 300 297 294 291 288 286 283 282 281 281 281 281 281 280 279 278 277 276 276 276 277 278 281 281 281 280 278 275 272 272 272 273 272 269 268 266 264 262 260 257 255 257 259 259 258 258 255 247 239 234 236 238 237 233 235 243 249 252 254 254 253 255 262 270 276 281 284 288 291 295 300 304 307
304 304 303 303 303 304 304 305 306 306 305 304 302 299 296 293 290 287 285 282 279 278 277 277 276 275 274 274 274 275 276 277 278 279 280 281 280 280 277 273 270 268 267 268 268 268 266 263 260 257 254 253 256 259 260 258 256 253 247 239 236 236 236 232 229 232 240 246 248 249 251 251 254 261 267 273 279 283 287 290 294 299 303 306 308
303 303 303 301 300 299 300 301 303 304 304 304 304 304 302 299 296 293 289 286 282 279 278 276 275 273 272 272 273 274 276 277 278 278 278 277 277 276 276 275 273 271 269 268 266 264 261 257 254 253 253 255 258 257 255 253 251 247 241 237 236 233 228 226 229 235 240 243 245 247 250 254 259 265 270 276 280 284 289 294 298 302 305 307 308
303 303 302 301 299 297 296 297 298 300 301 302 304 306 306 305 301 297 293 289 285 282 280 279 277 276 275 274 274 274 275 275 275 275 274 273 272 272 271 270 268 266 263 261 258 255 252 250 250 252 255 256 256 253 252 250 245 238 234 232 229 225 223 226 231 234 237 240 242 246 252 258 263 267 272 278 282 287 292 297 300 303 305 307 308
301 301 301 300 299 297 295 294 294 295 296 298 300 302 305 306 304 300 295 292 289 286 284 283 282 281 280 278 276 274 272 271 270 269 269 268 267 266 263 261 257 254 252 251 249 248 247 248 248 249 248 247 247 247 246 241 235 230 228 226 223 222 224 227 230 233 237 240 244 251 257 261 265 270 275 280 285 290 295 298 301 303 305 306 308
299 300 300 299 297 296 294 293 292 292 292 293 295 297 299 302 303 301 298 295 293 291 289 288 286 285 283 280 276 272 268 265 263 263 262 260 258 256 253 252 250 248 247 246 246 247 248 247 246 243 239 235 232 230 226 224 224 224 223 222 221 222 223 227 231 235 240 244 250 257 261 264 268 273 278 283 288 292 296 298 301 303 304 306 308
298 298 298 297 296 295 293 292 292 293 292 291 292 294 295 298 302 302 299 295 294 294 292 289 285 281 278 273 269 265 262 258 256 255 254 252 251 250 247 245 244 243 244 245 245 247 249 248 244 240 237 230 222 215 212 213 215 217 219 220 221 223 226 230 235 240 245 250 256 260 263 267 272 276 280 285 290 293 296 298 301 303 304 306 308
297 297 297 296 296 295 294 293 292 292 292 292 292 293 294 296 300 303 302 301 298 295 289 283 277 273 270 265 261 257 255 251 247 245 244 243 242 241 237 236 237 236 238 241 241 241 242 239 235 230 224 217 209 205 206 209 212 216 219 221 224 227 231 235 240 245 251 256 259 262 266 269 274 278 283 287 291 294 296 298 301 303 304 306 307
295 295 295 295 294 294 295 294 292 291 291 292 293 293 293 295 298 301 303 303 299 291 282 275 269 266 266 262 256 251 250 244 236 232 231 229 228 228 229 230 231 231 231 232 231 229 226 221 216 208 201 199 200 201 205 210 214 218 222 225 229 234 239 244 248 253 257 260 262 264 268 272 276 280 285 288 292 294 296 299 301 302 303 305 307
294 294 293 293 293 294 294 294 293 291 290 291 293 294 293 294 295 297 298 298 295 287 278 269 263 259 260 260 254 246 243 238 230 224 221 221 223 224 224 225 225 225 223 218 214 212 209 204 200 197 195 196 200 204 208 214 219 224 229 234 239 244 249 253 257 259 261 262 264 266 270 274 279 283 286 290 292 294 296 298 300 301 302 304 306
294 293 292 292 293 294 294 294 293 292 291 291 292 293 292 290 290 291 292 292 291 285 275 266 259 252 254 256 250 238 233 233 232 229 224 220 216 213 212 213 214 215 216 215 211 205 199 193 193 196 199 202 207 211 217 223 228 234 240 244 249 253 257 259 260 261 262 263 265 269 273 277 281 285 288 291 292 294 296 298 298 299 302 304 306
295 293 292 293 294 294 293 293 294 294 293 292 291 291 291 289 287 287 288 287 284 277 267 259 253 247 243 241 236 230 229 232 233 230 224 216 209 204 203 205 204 203 204 206 206 202 199 198 202 206 210 213 219 225 230 235 240 245 250 253 256 259 261 261 261 262 263 265 268 272 276 279 283 286 289 290 292 294 296 296 297 299 302 304 305
295 293 292 294 294 293 292 292 294 294 294 292 290 289 290 288 287 286 284 281 276 267 257 248 239 230 225 226 227 229 231 232 229 226 223 217 213 210 209 208 208 207 205 205 206 206 208 212 216 222 226 231 235 239 243 247 251 254 257 260 262 263 264 264 264 265 266 268 272 275 278 282 285 287 289 290 292 294 295 295 297 300 302 303 304
294 292 292 295 296 294 292 292 293 294 295 294 292 290 289 287 285 283 279 272 263 254 245 233 222 216 218 224 226 228 230 229 227 225 222 217 214 214 212 212 215 216 215 216 218 219 223 228 232 236 240 243 246 249 252 256 259 261 263 265 265 266 266 266 267 268 269 272 275 278 281 284 286 287 288 290 291 293 294 295 297 299 301 302 302
293 290 291 295 296 294 291 290 292 294 296 296 294 292 288 285 282 279 271 258 246 240 234 226 222 223 227 229 228 226 224 222 219 215 212 210 211 213 214 216 222 225 227 229 233 237 241 244 247 249 250 252 254 257 259 262 264 265 266 267 267 267 268 268 269 271 272 275 277 280 282 284 285 286 288 290 291 292 294 295 297 298 299 300 300
293 289 289 293 296 294 290 289 290 293 294 293 292 290 286 281 277 267 252 238 231 230 230 229 229 230 230 228 226 223 218 213 210 209 208 209 213 217 221 226 231 235 239 242 246 249 251 253 254 255 257 258 260 262 263 264 265 266 266 267 267 267 269 270 271 273 274 276 278 280 281 283 284 286 288 289 290 292 293 294 296 297 297 297 297
293 288 286 290 294 294 290 288 289 291 290 288 288 286 281 273 262 244 228 223 225 229 231 232 230 228 226 224 222 219 215 212 211 211 212 215 220 225 230 233 238 243 248 251 253 253 254 254 256 257 259 261 262 263 264 264 265 265 266 267 268 269 270 271 272 274 275 277 278 280 281 283 285 287 288 289 290 292 293 294 295 296 296 296 295
292 289 285 286 291 293 291 289 291 291 287 283 283 280 268 251 236 224 220 225 230 231 231 230 227 225 223 220 217 214 213 213 214 217 221 224 227 232 238 241 246 250 253 255 256 256 256 257 258 260 262 263 264 265 266 266 266 267 267 268 269 270 271 273 274 275 277 278 279 281 283 285 286 288 289 290 291 292 293 294 295 296 295 294 293
290 288 284 282 287 291 291 290 292 293 288 280 275 265 241 223 220 222 225 230 232 230 228 226 223 220 218 215 214 214 215 217 221 225 229 233 237 241 246 251 253 256 257 259 261 262 262 263 264 265 266 267 267 268 268 269 269 269 270 271 272 273 274 275 276 277 279 280 282 284 286 287 288 289 290 291 292 293 294 294 295 294 294 293 293
287 286 282 280 283 288 290 289 290 292 287 274 258 236 217 215 225 231 228 225 225 227 225 221 218 216 213 213 214 217 219 224 228 232 236 242 246 249 253 256 259 261 262 263 265 266 266 267 268 268 268 269 270 270 270 271 272 272 273 274 275 276 277 278 280 281 283 285 286 287 288 289 290 291 291 292 292 293 293 294 294 294 294 294 294
285 284 280 278 280 286 289 289 289 290 282 259 234 218 214 221 230 230 222 220 225 228 223 218 215 214 213 213 215 216 220 226 232 237 243 248 251 254 257 258 259 261 263 264 265 267 267 268 269 269 269 270 270 271 272 273 274 275 276 277 278 279 281 282 283 285 286 287 288 289 289 290 291 291 291 292 292 293 294 295 295 295 294 293 293
284 282 278 276 278 283 286 287 289 288 272 241 222 218 222 226 226 222 220 223 229 228 222 217 216 216 216 217 219 221 224 228 234 240 246 251 254 256 257 259 260 262 264 265 266 267 268 269 270 271 272 272 273 274 275 275 276 277 278 279 280 281 282 283 285 286 287 288 289 289 290 290 291 291 292 294 294 295 295 295 294 294 293 292 292
283 280 276 274 276 280 283 285 286 282 263 234 220 219 223 226 226 224 225 230 232 227 221 218 217 217 218 221 223 226 230 234 239 245 250 253 256 259 261 263 266 267 268 270 271 272 273 274 275 275 276 276 277 277 278 278 279 279 279 280 280 282 283 285 286 287 288 289 289 290 291 292 293 294 295 295 295 295 295 294 294 293 293 292 292
283 279 274 271 272 278 281 281 280 276 258 234 220 219 224 227 227 227 228 232 230 224 220 219 218 219 221 225 227 231 236 240 244 249 253 256 260 264 266 268 270 271 272 273 274 275 276 276 276 277 277 277 277 278 277 278 278 279 280 281 283 284 286 287 288 288 289 290 291 293 294 295 296 296 296 296 296 296 296 296 295 294 293 293 292
283 280 275 270 271 277 280 277 274 269 253 231 221 222 226 226 225 226 229 229 226 221 220 220 221 222 226 230 234 239 244 247 251 255 259 262 266 268 270 272 273 273 274 275 275 276 277 277 277 277 277 277 277 277 277 278 280 281 283 284 285 286 287 288 289 291 292 293 294 295 296 296 297 298 298 299 299 299 299 298 297 296 295 294 293
281 282 277 272 272 278 278 272 267 262 248 231 224 223 223 222 221 224 225 223 221 219 220 222 224 227 231 235 240 246 250 254 258 262 265 268 271 273 274 275 276 276 277 277 278 278 277 277 276 276 276 277 278 279 280 281 282 283 284 285 287 288 289 291 292 293 295 295 296 297 297 298 299 300 300 301 301 301 300 300 299 298 296 295 294
277 278 276 273 273 276 274 268 262 255 242 229 221 218 218 218 219 219 219 218 218 220 222 225 229 232 236 240 245 251 255 260 264 268 270 273 275 276 277 278 278 279 279 279 279 278 278 278 278 279 279 280 281 281 282 282 283 285 287 288 290 291 293 294 294 295 295 296 297 298 299 300 300 301 301 301 301 301 301 300 299 299 297 296 295
Height
3127 3127 3127 3126 3126 3126 3125 3123 3123 3123 3123 3123 3123 3123 3123 3121 3120 3118 3117 3116 3114 3113 3111 3110 3108 3107 3105 3104 3103 3102 3101 3100 3099 3097 3095 3093 3092 3089 3088 3086 3083 3081 3078 3076 3075 3074 3072 3071 3070 3070 3070 3069 3069 3069 3069 3068 3068 3067 3066 3066 3065 3064 3063 3062 3059 3057 3056 3054 3054 3053 3052 3051 3049 3049 3048 3046 3045 3044 3043 3043 3043 3044 3046 3047 3047
3125 3124 3124 3123 3123 3122 3121 3120 3119 3118 3118 3118 3118 3118 3118 3117 3116 3114 3113 3112 3110 3109 3108 3106 3104 3102 3101 3099 3098 3097 3096 3095 3093 3092 3090 3088 3087 3085 3083 3080 3078 3077 3075 3073 3071 3070 3068 3066 3065 3065 3065 3064 3064 3064 3064 3064 3063 3061 3061 3060 3060 3059 3059 3057 3054 3052 3050 3049 3048 3048 3046 3045 3044 3043 3042 3041 3040 3038 3038 3039 3040 3041 3042 3042 3042
3122 3121 3120 3120 3119 3118 3117 3117 3116 3114 3113 3113 3113 3113 3113 3112 3111 3110 3109 3107 3106 3104 3103 3101 3100 3098 3096 3095 3093 3092 3090 3089 3088 3086 3084 3083 3081 3080 3078 3076 3074 3072 3070 3068 3067 3065 3063 3061 3061 3061 3060 3058 3058 3059 3059 3058 3057 3056 3055 3055 3054 3054 3053 3051 3049 3046 3044 3043 3043 3042 3041 3039 3039 3039 3037 3036 3034 3034 3034 3035 3037 3038 3039 3039 3039
3117 3116 3116 3115 3115 3114 3114 3113 3112 3111 3110 3109 3108 3108 3107 3106 3105 3104 3103 3101 3100 3099 3098 3096 3094 3093 3091 3090 3088 3086 3085 3083 3082 3080 3079 3078 3076 3074 3073 3071 3069 3067 3065 3064 3062 3060 3058 3056 3056 3055 3054 3052 3052 3052 3052 3052 3051 3050 3049 3049 3048 3047 3046 3045 3043 3040 3038 3037 3037 3036 3035 3034 3034 3033 3031 3030 3029 3029 3030 3032 3033 3035 3035 3035 3035
3112 3111 3111 3110 3110 3110 3109 3109 3108 3107 3105 3104 3103 3102 3101 3100 3099 3097 3096 3095 3094 3093 3092 3090 3089 3087 3085 3084 3082 3081 3079 3077 3076 3075 3074 3072 3070 3069 3067 3065 3063 3062 3060 3059 3057 3055 3053 3052 3051 3050 3048 3046 3046 3046 3045 3045 3045 3044 3043 3042 3042 3041 3040 3038 3036 3034 3033 3032 3031 3030 3029 3028 3028 3027 3025 3025 3025 3025 3027 3028 3030 3031 3031 3031 3031
3108 3107 3106 3105 3105 3104 3104 3103 3102 3101 3100 3099 3098 3097 3096 3095 3093 3092 3091 3090 3088 3087 3086 3085 3083 3081 3079 3078 3076 3075 3073 3071 3070 3069 3068 3067 3065 3063 3061 3059 3057 3056 3054 3053 3052 3050 3048 3047 3046 3044 3042 3041 3040 3040 3039 3039 3038 3038 3038 3037 3036 3035 3033 3032 3030 3028 3027 3027 3026 3025 3023 3022 3021 3020 3020 3020 3020 3021 3023 3025 3026 3027 3027 3027 3027
3103 3103 3102 3101 3100 3099 3098 3097 3096 3096 3095 3094 3093 3092 3091 3090 3089 3087 3086 3084 3083 3082 3081 3079 3077 3075 3073 3072 3070 3069 3067 3065 3064 3064 3063 3061 3059 3057 3055 3053 3051 3050 3048 3047 3046 3044 3043 3042 3040 3039 3037 3036 3035 3034 3033 3033 3033 3033 3033 3032 3030 3029 3027 3026 3025 3023 3022 3021 3020 3019 3018 3017 3016 3015 3015 3015 3016 3017 3019 3020 3022 3023 3023 3023 3023
3099 3099 3098 3097 3096 3095 3094 3093 3091 3090 3089 3088 3087 3087 3086 3085 3083 3082 3080 3079 3078 3077 3075 3073 3071 3069 3068 3066 3065 3063 3061 3059 3059 3058 3057 3055 3053 3051 3049 3047 3045 3044 3042 3041 3040 3038 3037 3036 3034 3033 3032 3031 3030 3028 3027 3027 3027 3026 3026 3025 3024 3022 3021 3020 3019 3018 3016 3016 3015 3014 3012 3011 3011 3011 3010 3011 3012 3013 3015 3017 3018 3018 3019 3020 3020
3095 3094 3093 3092 3091 3090 3089 3088 3087 3086 3084 3083 3082 3081 3080 3078 3077 3076 3074 3073 3072 3070 3069 3067 3065 3063 3062 3060 3059 3057 3055 3054 3053 3052 3050 3049 3047 3045 3043 3041 3039 3038 3036 3035 3033 3032 3031 3030 3028 3027 3026 3025 3023 3022 3021 3021 3020 3019 3019 3018 3017 3016 3015 3014 3013 3012 3010 3009 3009 3008 3007 3006 3006 3006 3006 3007 3008 3010 3011 3012 3013 3014 3015 3016 3016
3091 3090 3089 3088 3087 3085 3084 3083 3082 3081 3080 3079 3077 3076 3074 3073 3071 3070 3069 3067 3066 3064 3062 3060 3058 3057 3055 3054 3052 3050 3048 3048 3047 3046 3044 3042 3040 3038 3037 3035 3033 3031 3030 3028 3027 3026 3025 3024 3022 3021 3020 3019 3017 3016 3015 3014 3013 3012 3012 3011 3010 3009 3008 3008 3007 3006 3005 3004 3003 3002 3001 3001 3001 3001 3002 3003 3005 3006 3007 3008 3010 3011 3012 3012 3012
3087 3086 3085 3083 3082 3081 3079 3078 3077 3075 3074 3073 3072 3071 3069 3068 3066 3065 3063 3062 3060 3058 3056 3054 3052 3050 3048 3047 3045 3043 3042 3041 3040 3039 3037 3035 3033 3032 3030 3029 3027 3025 3024 3022 3021 3020 3019 3017 3016 3015 3014 3013 3012 3011 3009 3008 3007 3006 3005 3004 3003 3002 3002 3001 3001 3001 3000 2999 2998 2997 2996 2996 2997 2998 2999 3001 3002 3003 3004 3006 3007 3008 3008 3008 3007
3083 3081 3080 3079 3077 3076 3074 3073 3072 3070 3069 3068 3066 3065 3064 3062 3061 3059 3058 3056 3054 3052 3050 3048 3046 3044 3042 3040 3038 3037 3036 3035 3033 3032 3030 3028 3026 3025 3023 3022 3020 3019 3018 3016 3015 3014 3012 3011 3010 3009 3008 3007 3006 3004 3003 3002 3001 3000 2999 2998 2997 2996 2996 2996 2996 2995 2994 2993 2992 2992 2992 2992 2993 2994 2995 2997 2998 3000 3002 3003 3004 3004 3004 3003 3003
3077 3076 3075 3074 3073 3071 3070 3068 3067 3066 3064 3063 3061 3059 3057 3056 3054 3053 3051 3049 3047 3045 3043 3042 3040 3038 3036 3034 3032 3030 3029 3028 3026 3025 3023 3021 3019 3018 3016 3015 3013 3012 3011 3010 3009 3007 3006 3005 3003 3002 3001 3000 2999 2998 2996 2995 2995 2994 2993 2992 2991 2990 2990 2990 2990 2988 2987 2987 2987 2987 2988 2989 2990 2991 2992 2993 2995 2997 2999 3000 3000 3000 2999 2998 2998
3072 3070 3070 3068 3067 3065 3064 3062 3061 3059 3058 3056 3055 3053 3051 3049 3048 3045 3043 3042 3040 3038 3036 3034 3033 3031 3029 3027 3025 3023 3022 3021 3019 3017 3016 3014 3012 3011 3009 3007 3006 3005 3004 3003 3002 3001 3000 2999 2997 2996 2995 2994 2992 2991 2990 2990 2989 2988 2987 2986 2986 2985 2985 2984 2984 2982 2982 2982 2982 2983 2984 2986 2987 2988 2989 2991 2993 2994 2995 2995 2995 2995 2994 2994 2993
3066 3064 3063 3062 3060 3058 3057 3055 3053 3052 3051 3049 3047 3045 3044 3042 3040 3038 3036 3034 3032 3031 3029 3027 3026 3024 3022 3020 3018 3017 3016 3014 3012 3010 3009 3007 3005 3003 3002 3001 2999 2999 2998 2997 2996 2995 2994 2993 2991 2990 2988 2987 2986 2985 2985 2984 2983 2982 2981 2981 2981 2980 2979 2979 2978 2977 2977 2977 2978 2979 2981 2982 2984 2986 2988 2989 2990 2990 2990 2990 2990 2990 2990 2990 2990
3060 3058 3057 3056 3054 3053 3050 3048 3047 3045 3043 3042 3040 3038 3037 3035 3033 3031 3029 3027 3025 3023 3022 3020 3018 3017 3015 3013 3012 3011 3010 3007 3005 3003 3002 3000 2999 2997 2995 2994 2993 2992 2991 2990 2989 2988 2987 2986 2985 2983 2982 2981 2980 2980 2979 2978 2977 2976 2976 2975 2975 2975 2974 2974 2973 2973 2972 2973 2974 2976 2978 2980 2982 2984 2985 2986 2985 2985 2985 2986 2986 2986 2986 2986 2987
3055 3053 3052 3050 3049 3047 3045 3043 3041 3039 3037 3035 3034 3032 3030 3028 3027 3025 3022 3021 3019 3017 3015 3013 3011 3010 3008 3007 3005 3004 3003 3001 2998 2996 2995 2993 2992 2990 2989 2987 2986 2985 2984 2983 2983 2982 2980 2979 2978 2977 2976 2975 2974 2974 2973 2972 2971 2971 2971 2971 2970 2970 2970 2969 2968 2968 2969 2970 2972 2974 2976 2978 2980 2981 2981 2981 2981 2981 2981 2982 2982 2983 2983 2983 2984
3049 3048 3046 3045 3043 3041 3039 3037 3035 3033 3032 3030 3028 3026 3024 3022 3020 3018 3016 3014 3012 3011 3008 3006 3005 3003 3001 3000 2998 2997 2996 2994 2991 2990 2988 2987 2985 2984 2982 2981 2979 2979 2978 2977 2976 2975 2974 2973 2971 2970 2970 2969 2968 2968 2967 2967 2966 2966 2966 2966 2966 2965 2965 2964 2964 2965 2966 2968 2970 2972 2973 2975 2976 2976 2977 2977 2977 2978 2978 2978 2979 2979 2980 2981 2981
3043 3042 3040 3039 3037 3035 3033 3031 3030 3028 3026 3024 3022 3020 3018 3016 3014 3012 3010 3007 3006 3004 3002 3000 2999 2997 2995 2993 2991 2990 2988 2987 2984 2983 2982 2980 2978 2977 2976 2974 2973 2973 2972 2971 2969 2969 2968 2967 2965 2965 2964 2963 2962 2962 2962 2962 2961 2961 2962 2961 2961 2960 2960 2960 2961 2962 2964 2966 2968 2969 2971 2972 2972 2972 2973 2973 2974 2974 2975 2975 2976 2977 2977 2977 2977
3037 3035 3034 3033 3031 3029 3027 3025 3023 3021 3019 3018 3016 3014 3012 3010 3008 3006 3004 3001 2999 2998 2996 2994 2992 2991 2989 2987 2985 2983 2981 2980 2978 2977 2975 2973 2972 2970 2969 2968 2968 2967 2965 2964 2963 2962 2961 2960 2959 2958 2957 2957 2957 2957 2957 2957 2956 2956 2956 2957 2957 2956 2956 2957 2958 2959 2961 2963 2965 2966 2967 2968 2968 2969 2969 2970 2970 2971 2972 2973 2973 2974 2973 2973 2972
3029 3028 3027 3025 3024 3022 3021 3018 3016 3015 3013 3010 3009 3007 3005 3003 3002 3000 2998 2995 2993 2991 2989 2988 2986 2984 2983 2981 2979 2977 2975 2973 2972 2970 2968 2967 2966 2964 2963 2962 2961 2960 2958 2957 2956 2955 2954 2954 2953 2953 2952 2952 2952 2952 2952 2952 2952 2952 2952 2952 2952 2952 2952 2954 2955 2956 2958 2960 2962 2962 2963 2964 2965 2965 2966 2967 2967 2968 2969 2970 2970 2970 2970 2969 2968
3021 3020 3018 3017 3016 3014 3013 3011 3009 3007 3005 3003 3001 3000 2998 2996 2994 2992 2991 2989 2987 2985 2983 2981 2979 2978 2976 2974 2972 2970 2969 2967 2965 2963 2962 2960 2959 2958 2957 2956 2954 2953 2952 2951 2950 2949 2948 2947 2947 2946 2945 2945 2946 2946 2947 2947 2947 2947 2947 2947 2947 2948 2949 2950 2952 2954 2956 2957 2958 2959 2960 2961 2961 2962 2963 2964 2965 2965 2966 2966 2966 2966 2965 2965 2963
3014 3013 3011 3009 3007 3006 3004 3003 3001 3000 2998 2996 2993 2992 2990 2988 2986 2984 2983 2981 2979 2978 2976 2974 2971 2970 2969 2967 2965 2964 2962 2961 2959 2956 2954 2953 2952 2951 2950 2949 2948 2946 2945 2944 2943 2942 2942 2941 2940 2940 2939 2940 2940 2941 2942 2942 2942 2942 2942 2943 2943 2944 2946 2948 2950 2952 2953 2954 2955 2956 2957 2957 2958 2959 2960 2961 2961 2962 2962 2962 2962 2962 2961 2960 2959
3008 3006 3004 3002 3000 2998 2996 2995 2993 2991 2990 2988 2986 2984 2982 2980 2978 2976 2974 2972 2971 2969 2968 2966 2964 2962 2961 2959 2958 2957 2955 2954 2952 2949 2948 2947 2946 2944 2943 2942 2941 2939 2938 2937 2937 2936 2935 2935 2935 2934 2934 2935 2936 2936 2936 2937 2937 2938 2938 2939 2940 2942 2944 2946 2948 2949 2950 2951 2952 2953 2953 2954 2955 2956 2957 2958 2958 2958 2958 2958 2958 2958 2957 2956 2954
3001 3000 2998 2996 2994 2991 2989 2988 2986 2983 2982 2979 2977 2976 2974 2972 2970 2968 2966 2964 2962 2961 2959 2957 2955 2953 2952 2951 2950 2949 2947 2946 2945 2943 2942 2941 2939 2937 2936 2934 2933 2931 2931 2930 2930 2929 2929 2929 2929 2929 2929 2930 2931 2931 2932 2932 2933 2933 2934 2936 2938 2940 2942 2943 2944 2945 2946 2947 2948 2949 2950 2951 2952 2953 2954 2954 2954 2954 2954 2954 2954 2953 2952 2951 2949
2995 2993 2991 2990 2988 2985 2983 2981 2979 2977 2975 2972 2970 2968 2966 2963 2962 2960 2958 2955 2953 2952 2950 2948 2946 2944 2943 2942 2941 2940 2940 2939 2937 2936 2935 2934 2932 2930 2929 2927 2926 2925 2924 2924 2923 2923 2923 2924 2924 2924 2924 2924 2926 2927 2927 2928 2928 2929 2931 2933 2935 2937 2938 2939 2941 2942 2943 2944 2945 2946 2947 2948 2949 2950 2950 2950 2950 2950 2950 2949 2949 2948 2947 2946 2945
2988 2987 2985 2983 2981 2979 2977 2975 2973 2971 2968 2966 2963 2961 2958 2956 2954 2952 2950 2947 2945 2943 2942 2940 2938 2936 2934 2933 2933 2932 2931 2931 2930 2929 2928 2926 2925 2924 2923 2922 2921 2920 2919 2919 2918 2918 2918 2919 2920 2920 2919 2920 2922 2922 2923 2923 2925 2927 2929 2931 2932 2934 2935 2936 2938 2939 2940 2941 2942 2943 2944 2945 2945 2946 2946 2947 2947 2946 2946 2945 2944 2943 2942 2941 2940
2982 2980 2978 2976 2974 2972 2970 2968 2966 2964 2962 2959 2957 2954 2952 2949 2947 2944 2942 2939 2937 2936 2934 2933 2931 2929 2927 2926 2925 2924 2924 2923 2923 2922 2921 2919 2918 2917 2916 2916 2915 2914 2914 2914 2914 2914 2914 2915 2916 2916 2916 2917 2918 2918 2919 2921 2923 2925 2926 2928 2929 2931 2932 2934 2935 2936 2937 2938 2939 2939 2940 2941 2942 2942 2943 2943 2943 2942 2942 2941 2940 2939 2938 2936 2935
2975 2974 2972 2969 2967 2965 2963 2961 2959 2957 2955 2953 2951 2948 2945 2943 2940 2938 2935 2932 2930 2929 2927 2926 2925 2923 2922 2921 2919 2918 2917 2917 2916 2914 2913 2912 2911 2910 2910 2910 2909 2909 2909 2909 2910 2910 2911 2911 2912 2912 2913 2914 2914 2916 2917 2919 2921 2923 2925 2926 2927 2928 2930 2931 2932 2933 2934 2935 2936 2936 2937 2938 2939 2939 2939 2939 2939 2938 2937 2936 2935 2934 2933 2932 2930
2968 2967 2965 2963 2961 2958 2956 2955 2952 2950 2948 2946 2944 2942 2939 2937 2934 2932 2929 2926 2924 2922 2921 2920 2919 2918 2916 2915 2913 2912 2911 2910 2908 2907 2906 2906 2905 2904 2904 2904 2904 2905 2905 2906 2907 2907 2908 2908 2909 2910 2910 2911 2912 2914 2916 2917 2919 2921 2922 2923 2924 2925 2927 2928 2929 2930 2931 2932 2933 2934 2934 2935 2935 2935 2935 2935 2934 2934 2933 2932 2931 2929 2928 2927 2925
2960 2959 2958 2955 2953 2951 2949 2947 2945 2943 2941 2939 2937 2935 2933 2931 2928 2926 2924 2921 2918 2917 2915 2914 2913 2911 2910 2908 2907 2905 2904 2903 2903 2902 2902 2901 2901 2901 2901 2901 2902 2902 2903 2904 2905 2905 2906 2907 2908 2908 2909 2909 2910 2912 2913 2915 2916 2918 2919 2920 2921 2923 2924 2925 2927 2928 2929 2929 2930 2931 2931 2932 2932 2932 2932 2931 2930 2929 2928 2927 2926 2925 2923 2922 2920
2951 2951 2949 2947 2945 2943 2941 2939 2938 2935 2933 2932 2930 2928 2926 2924 2922 2920 2918 2915 2912 2911 2909 2907 2906 2905 2904 2903 2901 2900 2899 2899 2899 2899 2898 2898 2898 2898 2899 2899 2899 2900 2900 2901 2902 2903 2904 2905 2906 2907 2908 2908 2909 2910 2912 2913 2915 2916 2917 2918 2919 2921 2922 2923 2924 2925 2925 2926 2927 2927 2928 2928 2928 2928 2927 2927 2926 2925 2924 2923 2921 2920 2918 2916 2915
2943 2942 2941 2939 2937 2935 2933 2931 2930 2928 2926 2924 2922 2920 2919 2917 2915 2914 2912 2909 2907 2905 2904 2902 2901 2900 2900 2899 2898 2897 2897 2896 2896 2896 2896 2895 2895 2895 2896 2896 2896 2897 2898 2899 2900 2901 2902 2904 2905 2906 2907 2907 2908 2910 2911 2912 2913 2915 2916 2916 2917 2918 2919 2920 2921 2922 2922 2923 2923 2923 2924 2924 2924 2923 2923 2922 2922 2921 2919 2918 2916 2914 2913 2911 2910
2936 2935 2933 2931 2929 2928 2926 2924 2922 2920 2919 2917 2915 2913 2912 2910 2909 2908 2906 2904 2903 2902 2900 2898 2897 2896 2896 2896 2895 2894 2894 2894 2893 2893 2893 2892 2892 2892 2893 2893 2894 2895 2896 2897 2898 2899 2900 2902 2903 2904 2906 2907 2908 2909 2910 2911 2912 2913 2914 2915 2916 2916 2917 2918 2918 2919 2919 2919 2919 2919 2920 2920 2919 2919 2918 2918 2917 2916 2914 2912 2911 2909 2907 2906 2904
2929 2927 2926 2924 2922 2920 2919 2917 2915 2913 2912 2910 2908 2906 2905 2904 2903 2902 2901 2900 2898 2897 2896 2895 2894 2893 2893 2893 2892 2892 2892 2892 2891 2891 2891 2891 2891 2891 2891 2892 2893 2894 2895 2896 2897 2898 2899 2900 2902 2903 2905 2906 2907 2908 2908 2909 2910 2910 2911 2913 2913 2914 2915 2915 2916 2916 2915 2916 2916 2916 2916 2915 2915 2914 2914 2913 2913 2911 2909 2907 2905 2904 2902 2901 2899
2922 2920 2919 2917 2915 2913 2912 2910 2908 2907 2905 2903 2901 2900 2899 2898 2897 2896 2895 2894 2893 2892 2892 2891 2890 2890 2889 2889 2889 2888 2888 2889 2889 2889 2890 2890 2890 2891 2891 2891 2892 2893 2894 2895 2896 2897 2897 2899 2900 2902 2903 2904 2905 2906 2906 2907 2907 2908 2909 2910 2911 2912 2912 2913 2913 2912 2912 2912 2912 2912 2912 2911 2910 2910 2909 2909 2908 2906 2904 2902 2900 2898 2897 2895 2894
2915 2913 2912 2911 2909 2907 2905 2903 2902 2900 2898 2896 2895 2894 2893 2892 2892 2891 2890 2889 2888 2887 2887 2887 2886 2886 2885 2885 2885 2885 2886 2886 2887 2888 2889 2889 2890 2890 2890 2890 2891 2892 2893 2894 2895 2896 2896 2898 2899 2900 2901 2902 2903 2903 2904 2904 2905 2906 2907 2908 2908 2909 2909 2910 2910 2910 2910 2909 2909 2908 2907 2907 2906 2905 2905 2904 2902 2900 2899 2897 2895 2893 2892 2890 2888
2909 2907 2905 2904 2902 2900 2899 2897 2896 2894 2892 2890 2889 2888 2887 2887 2886 2886 2885 2884 2883 2882 2882 2882 2882 2882 2882 2882 2882 2883 2884 2885 2886 2887 2887 2888 2888 2889 2889 2889 2890 2891 2892 2893 2893 2894 2895 2896 2897 2898 2899 2900 2900 2901 2902 2902 2903 2904 2905 2905 2906 2906 2907 2907 2907 2907 2906 2906 2905 2904 2903 2902 2901 2901 2900 2899 2897 2895 2893 2892 2890 2888 2886 2885 2883
2903 2901 2900 2898 2896 2894 2892 2891 2890 2888 2887 2885 2884 2883 2882 2881 2881 2880 2879 2879 2878 2878 2877 2877 2877 2878 2879 2880 2880 2881 2882 2883 2884 2884 2885 2886 2886 2887 2887 2888 2888 2889 2890 2890 2891 2892 2893 2894 2895 2896 2897 2898 2898 2899 2899 2900 2901 2901 2902 2903 2903 2904 2904 2904 2904 2903 2903 2902 2901 2900 2899 2898 2897 2896 2895 2894 2892 2890 2888 2886 2885 2883 2881 2879 2877
2897 2895 2894 2893 2891 2888 2886 2885 2884 2883 2881 2880 2879 2878 2876 2876 2875 2875 2874 2874 2874 2874 2873 2874 2874 2875 2876 2877 2878 2879 2880 2881 2881 2881 2882 2883 2884 2885 2886 2886 2886 2887 2887 2888 2889 2890 2892 2893 2894 2894 2895 2895 2896 2896 2897 2898 2898 2899 2899 2900 2900 2900 2900 2900 2900 2899 2898 2897 2896 2895 2894 2893 2892 2891 2890 2888 2886 2884 2882 2881 2879 2877 2876 2873 2871
2891 2889 2888 2887 2885 2883 2881 2879 2878 2877 2875 2874 2873 2872 2871 2870 2870 2870 2870 2870 2870 2870 2870 2871 2871 2872 2873 2874 2876 2877 2878 2878 2878 2879 2880 2881 2882 2883 2884 2884 2885 2885 2885 2886 2888 2889 2890 2891 2892 2892 2892 2893 2893 2894 2894 2895 2895 2896 2896 2896 2896 2897 2896 2896 2896 2895 2894 2893 2892 2891 2890 2889 2888 2886 2885 2883 2881 2879 2877 2875 2873 2871 2869 2867 2865
2884 2882 2882 2881 2879 2877 2875 2874 2872 2870 2869 2868 2867 2866 2865 2865 2865 2865 2866 2866 2867 2867 2867 2868 2869 2870 2871 2872 2873 2874 2875 2875 2876 2877 2878 2879 2880 2881 2881 2882 2882 2883 2884 2885 2886 2887 2888 2888 2889 2889 2890 2890 2890 2891 2891 2892 2892 2892 2892 2892 2893 2892 2892 2892 2891 2890 2889 2888 2887 2886 2885 2884 2882 2881 2879 2877 2875 2873 2871 2869 2867 2865 2863 2861 2858
2877 2876 2875 2874 2873 2871 2869 2868 2866 2864 2862 2861 2861 2860 2860 2861 2861 2862 2863 2864 2864 2864 2865 2866 2867 2868 2869 2870 2871 2871 2872 2873 2874 2875 2875 2876 2877 2878 2879 2879 2880 2881 2882 2883 2884 2884 2885 2885 2886 2886 2887 2887 2887 2888 2888 2888 2888 2889 2888 2888 2888 2888 2887 2887 2886 2885 2884 2883 2882 2881 2880 2878 2876 2875 2873 2871 2869 2866 2864 2862 2860 2858 2856 2854 2852
2870 2869 2868 2867 2867 2865 2864 2862 2860 2858 2856 2855 2855 2855 2856 2857 2858 2859 2860 2861 2861 2861 2862 2863 2864 2866 2866 2867 2868 2869 2870 2871 2872 2873 2873 2874 2875 2875 2876 2877 2878 2879 2880 2880 2881 2881 2882 2882 2883 2883 2883 2884 2884 2884 2884 2884 2884 2884 2884 2884 2884 2883 2882 2882 2881 2880 2879 2878 2877 2875 2874 2872 2870 2868 2866 2864 2862 2860 2858 2856 2854 2852 2850 2848 2846
2863 2862 2861 2861 2861 2860 2858 2856 2854 2852 2851 2851 2851 2851 2852 2853 2855 2856 2856 2857 2858 2859 2860 2861 2862 2863 2863 2864 2865 2866 2867 2868 2869 2870 2871 2872 2873 2873 2874 2875 2876 2876 2877 2877 2878 2878 2878 2879 2879 2880 2880 2880 2880 2880 2880 2880 2880 2880 2879 2879 2878 2878 2877 2876 2876 2875 2873 2872 2870 2869 2867 2865 2864 2862 2860 2857 2855 2853 2851 2849 2847 2845 2843 2841 2839
2856 2855 2854 2854 2854 2854 2853 2851 2849 2848 2847 2847 2848 2848 2849 2850 2851 2852 2853 2854 2856 2857 2858 2859 2860 2861 2861 2862 2863 2864 2865 2866 2867 2868 2869 2870 2870 2871 2872 2872 2873 2873 2874 2874 2875 2875 2875 2875 2876 2876 2876 2876 2876 2876 2876 2876 2875 2875 2874 2874 2873 2873 2872 2871 2870 2868 2867 2866 2864 2862 2861 2859 2857 2855 2853 2851 2849 2847 2845 2843 2840 2838 2836 2834 2832
2850 2849 2848 2848 2848 2848 2847 2846 2845 2843 2843 2844 2845 2846 2846 2847 2848 2849 2850 2852 2854 2855 2856 2857 2858 2858 2859 2860 2861 2862 2863 2864 2865 2866 2867 2867 2868 2869 2869 2870 2870 2870 2870 2871 2871 2871 2871 2871 2872 2872 2872 2872 2871 2871 2871 2871 2870 2870 2869 2869 2868 2867 2866 2865 2863 2862 2860 2859 2857 2855 2854 2852 2850 2848 2846 2844 2841 2839 2837 2835 2833 2831 2829 2827 2826
2843 2843 2842 2843 2843 2843 2842 2841 2840 2839 2839 2840 2841 2842 2843 2844 2845 2846 2847 2849 2851 2852 2853 2854 2855 2856 2857 2858 2859 2860 2861 2862 2862 2863 2864 2865 2865 2866 2866 2866 2866 2866 2866 2867 2867 2867 2867 2867 2867 2867 2867 2867 2867 2866 2866 2865 2865 2864 2863 2862 2862 2860 2859 2858 2857 2855 2854 2852 2850 2849 2847 2845 2843 2841 2838 2836 2834 2832 2830 2828 2826 2824 2822 2820 2819
2838 2837 2837 2837 2837 2837 2837 2836 2835 2835 2835 2836 2837 2838 2839 2840 2841 2843 2844 2846 2848 2849 2850 2852 2853 2854 2855 2856 2856 2857 2858 2859 2860 2860 2861 2861 2862 2862 2862 2862 2862 2862 2862 2862 2862 2863 2863 2863 2863 2862 2862 2862 2861 2861 2860 2859 2859 2858 2857 2856 2855 2854 2853 2851 2850 2848 2847 2845 2843 2842 2840 2838 2836 2834 2831 2829 2827 2825 2823 2821 2819 2817 2816 2814 2813
2833 2832 2832 2832 2832 2832 2832 2831 2831 2830 2831 2832 2833 2834 2836 2837 2838 2839 2841 2843 2844 2846 2848 2849 2850 2851 2852 2853 2854 2854 2855 2856 2856 2857 2857 2857 2858 2858 2858 2858 2858 2858 2858 2858 2858 2858 2858 2857 2857 2857 2857 2856 2856 2855 2854 2853 2852 2851 2850 2849 2848 2847 2846 2844 2843 2841 2840 2838 2837 2835 2833 2832 2830 2827 2825 2823 2821 2819 2818 2816 2814 2812 2810 2808 2807
2828 2827 2827 2827 2827 2827 2827 2827 2826 2826 2827 2827 2829 2830 2832 2833 2835 2836 2838 2840 2841 2843 2844 2846 2847 2848 2849 2850 2851 2851 2851 2852 2852 2853 2853 2853 2854 2854 2854 2854 2854 2854 2854 2853 2853 2853 2853 2853 2853 2852 2851 2851 2850 2849 2848 2847 2846 2845 2844 2843 2841 2840 2839 2838 2836 2835 2833 2832 2830 2829 2827 2826 2824 2822 2820 2818 2816 2814 2812 2810 2808 2807 2805 2803 2802